Wind_Speed
20 19 17 16 13 10 10 9 8 7 4 4 2 4 4 2 3 5 9 9 9 8 7 8 9 9 8 8 7 7 7 6 6 6 7 6 4 3 4 4 4 4 4 4 3 3 3 3 4
21 20 20 18 13 11 12 9 9 9 7 7 5 2 2 2 2 4 8 8 7 6 6 6 7 7 5 4 4 4 5 6 5 6 6 6 6 6 5 3 2 4 4 4 3 3 3 4 5
21 22 21 17 12 12 15 12 11 9 9 8 6 4 3 1 1 2 5 7 5 4 5 5 5 6 4 3 2 2 3 4 5 4 5 5 5 5 5 4 2 2 2 2 3 4 5 5 6
23 24 22 17 14 14 15 13 12 12 11 9 6 6 6 5 2 4 5 6 5 4 4 4 3 2 3 3 2 1 2 3 4 6 5 4 4 5 5 4 4 4 3 3 4 5 6 8 9
25 26 23 19 18 17 19 15 15 14 12 9 7 6 6 6 5 4 6 7 6 4 3 2 2 2 1 1 2 2 1 1 1 4 7 7 6 5 5 5 5 5 4 4 5 6 7 9 10
27 28 26 22 21 22 22 18 16 17 13 13 11 9 9 8 7 8 7 6 4 3 2 3 3 2 1 1 3 4 4 4 3 2 3 6 7 6 5 4 4 4 3 4 5 6 8 9 10
30 31 28 23 23 25 22 18 17 19 15 15 14 14 14 12 10 10 11 9 8 8 7 6 6 5 4 3 3 3 3 3 4 3 4 4 6 7 8 8 8 8 8 8 9 10 10 9 10
29 32 30 26 26 24 22 21 19 20 18 18 16 14 15 16 15 14 13 14 13 11 10 9 8 7 8 8 7 5 5 4 4 4 4 4 5 7 8 9 9 9 9 9 8 8 8 9 11
32 34 34 31 27 25 23 20 19 19 20 20 20 19 18 18 19 19 17 17 16 15 14 14 12 11 11 10 10 10 9 8 7 6 5 4 4 4 5 7 8 8 8 9 9 9 10 12 13
34 36 37 34 29 27 26 23 22 22 22 20 20 21 21 21 21 21 21 19 17 13 11 10 9 9 8 8 7 7 7 7 9 9 8 8 8 9 9 10 10 11 12 12 13 13 14 15 16
35 37 39 36 30 27 27 27 26 23 21 21 22 23 23 23 23 22 21 19 16 13 12 11 10 9 8 7 5 5 5 4 5 5 5 6 7 8 9 10 11 12 13 13 14 15 16 16 17
38 38 38 37 34 30 28 28 29 27 23 24 23 23 24 23 23 23 22 20 17 15 15 14 13 11 10 9 9 9 8 8 9 10 10 10 11 11 12 14 15 15 16 17 18 20 21 21 21
39 40 39 40 37 35 32 32 33 29 26 27 26 25 26 24 22 24 24 23 19 18 18 18 17 14 14 14 14 13 13 13 14 14 15 16 16 17 18 19 20 21 22 23 24 25 26 27 28
40 41 41 41 40 38 37 35 35 33 31 31 31 29 30 27 26 26 26 26 23 21 21 22 20 20 19 19 18 17 18 18 19 20 20 21 22 22 23 24 25 26 26 26 28 28 29 30 31
43 44 43 42 42 41 41 40 34 38 38 35 33 32 32 33 29 29 30 29 25 24 26 26 23 23 22 22 23 23 22 22 23 24 24 24 24 25 25 26 27 27 28 29 30 32 33 34 35
47 47 48 45 44 44 44 42 36 42 42 40 37 36 35 36 36 34 34 31 30 28 29 29 26 26 25 25 24 25 26 26 25 24 25 25 27 28 28 30 32 33 33 33 34 36 37 38 39
53 53 52 47 45 47 49 48 42 45 46 45 42 39 39 39 38 37 36 36 34 32 32 32 29 28 28 28 27 26 27 28 28 29 30 31 31 32 33 35 37 38 39 40 41 41 42 43 44
54 51 52 51 49 52 54 55 48 49 51 50 46 44 42 42 42 41 36 39 36 34 36 35 33 32 31 31 31 31 32 31 32 32 34 35 37 38 38 39 41 42 43 45 46 47 49 51 51
54 57 58 58 54 57 57 57 54 50 54 54 51 46 47 46 47 46 42 40 38 36 37 38 35 34 34 34 34 36 36 36 35 36 37 39 39 39 40 42 43 45 47 50 51 53 54 56 57
54 57 57 56 56 58 59 60 58 52 52 54 53 49 48 50 52 50 45 41 39 38 40 41 39 38 38 38 38 39 40 39 40 40 40 40 41 42 43 46 50 52 53 53 53 54 55 57 60
45 48 50 52 55 58 61 62 59 53 53 52 53 50 46 49 53 53 49 45 42 42 43 44 43 43 43 42 43 44 44 44 45 45 44 44 45 46 50 53 54 54 55 56 58 59 61 61 64
54 47 46 48 52 54 57 64 57 52 51 51 49 48 45 46 54 55 49 47 46 46 46 49 47 47 48 48 48 48 48 49 49 49 49 49 49 52 57 58 58 58 60 61 62 63 64 65 67
45 48 49 47 50 54 54 59 59 48 48 46 47 47 47 47 50 53 49 48 48 49 51 51 52 52 53 53 53 53 52 52 52 53 53 52 56 62 62 63 62 60 61 62 64 66 67 69 69
50 50 48 50 53 59 54 55 66 48 43 44 45 46 46 46 46 49 49 50 52 54 54 55 56 57 57 57 57 57 56 56 56 56 56 59 62 65 67 64 63 65 67 68 69 69 70 70 70
57 57 56 56 54 61 57 56 62 57 45 43 43 44 45 45 46 48 51 52 53 54 56 57 58 59 59 59 59 59 60 60 60 60 62 64 68 72 73 70 71 71 70 71 72 71 71 71 70
54 54 54 55 62 63 58 61 57 55 47 44 45 44 45 45 46 49 51 52 53 54 55 57 60 60 61 61 61 62 63 62 63 63 66 68 71 75 76 74 74 74 73 72 71 71 72 71 72
57 59 52 57 62 64 68 66 60 56 50 46 45 44 45 47 49 50 51 53 54 55 57 58 60 62 62 63 63 63 63 64 66 67 70 73 75 76 74 76 76 73 72 72 72 72 73 74 75
59 53 54 58 61 65 67 65 64 55 52 51 47 49 49 49 49 50 51 53 54 55 56 58 60 61 61 62 63 64 65 66 67 71 74 74 74 75 75 73 72 72 72 73 74 75 75 74 73
54 53 52 51 54 56 59 58 60 62 61 61 57 53 50 50 49 50 51 53 54 55 57 58 59 60 61 62 64 65 67 71 72 73 73 74 73 72 71 71 72 73 74 74 74 72 71 71 71
53 52 51 54 54 53 55 58 52 51 54 59 62 60 52 48 50 51 50 51 53 55 56 57 58 60 63 65 68 70 71 69 69 70 70 70 70 71 72 74 74 73 71 70 70 70 70 70 68
Wind_Direction
207 211 213 213 205 195 209 209 191 196 187 164 141 121 98 82 106 130 145 146 140 137 131 127 127 126 132 141 149 142 141 132 118 102 94 97 100 128 148 148 158 187 189 191 215 209 239 254 260
210 216 220 220 210 203 218 224 219 203 212 201 196 171 75 49 106 124 148 158 148 146 144 136 121 121 123 127 145 142 145 155 149 129 116 105 102 95 93 112 167 200 212 220 241 246 252 265 281
213 220 225 221 209 214 229 230 235 213 206 227 212 223 222 184 155 134 154 164 161 138 133 127 122 125 127 115 115 102 96 143 161 151 133 128 114 105 102 103 115 191 228 263 289 283 286 292 290
215 221 224 222 210 208 235 240 237 230 219 207 217 232 221 216 167 175 158 164 168 148 132 126 137 148 156 157 163 150 99 92 151 171 163 144 131 122 126 140 161 168 189 219 251 271 282 290 288
214 223 224 223 225 228 236 241 242 238 234 226 219 222 215 213 198 197 179 174 183 190 186 220 234 240 230 232 229 220 224 95 59 162 181 184 181 174 151 149 156 164 187 215 246 262 277 283 288
214 224 226 230 231 237 236 238 236 235 236 247 231 221 216 219 212 214 202 185 189 209 232 252 256 262 354 5 313 291 278 277 259 257 209 203 206 218 211 217 217 225 250 269 281 290 298 307 309
219 228 229 230 235 239 241 241 230 228 227 239 236 224 221 223 224 227 225 215 222 235 240 241 243 257 266 272 296 313 320 315 293 275 263 244 226 229 238 240 247 254 258 264 269 274 280 285 289
222 230 236 231 233 237 238 236 230 228 222 238 237 231 231 229 225 226 227 224 226 231 232 230 233 235 232 237 247 248 254 262 280 287 278 266 251 245 249 253 258 265 271 275 281 288 297 301 303
223 233 233 233 235 241 242 237 234 232 232 230 237 240 239 237 234 228 228 229 228 228 226 223 226 228 230 230 235 235 237 238 236 241 254 266 271 269 260 259 262 268 272 275 280 283 285 285 287
224 231 239 234 231 233 239 240 235 235 234 235 238 244 247 243 239 234 232 229 230 228 220 219 224 231 233 241 241 235 242 248 243 235 235 239 243 247 252 257 259 264 268 271 273 272 273 274 275
223 229 236 240 230 224 229 238 239 235 235 240 240 246 249 247 246 238 230 222 219 221 227 220 221 224 224 219 225 242 251 263 278 287 288 286 287 288 284 278 283 294 297 296 294 291 290 288 289
223 229 236 240 238 231 226 234 244 245 244 245 248 248 246 247 244 237 230 224 223 221 223 228 227 224 231 233 232 235 243 249 257 266 273 278 283 289 292 296 295 294 294 294 294 294 294 293 293
227 230 235 243 244 242 239 238 245 245 247 251 252 254 249 241 240 238 231 228 227 228 230 225 226 230 236 239 239 243 250 257 264 269 274 275 277 281 285 288 289 290 292 293 294 295 296 296 295
230 233 235 240 245 245 246 244 247 251 247 246 250 249 253 245 238 237 237 232 229 232 235 238 238 237 235 238 242 251 259 263 266 270 274 277 281 283 285 287 288 289 292 293 292 291 292 292 292
232 235 235 236 243 245 246 243 248 255 253 250 252 253 248 247 240 241 240 237 232 235 237 235 238 244 248 249 253 253 252 259 268 272 275 278 280 283 287 289 288 290 291 292 292 292 293 294 293
233 235 238 237 240 246 250 249 250 255 256 258 260 258 250 237 239 240 240 239 238 238 244 242 241 243 245 249 257 264 265 266 268 269 272 274 278 283 287 289 292 293 292 293 293 293 294 295 295
232 235 239 239 243 247 248 250 251 253 257 258 258 257 255 252 242 241 242 241 242 243 249 250 249 250 254 255 256 259 263 267 270 274 279 281 283 285 286 288 290 293 293 293 292 292 292 292 292
238 240 242 245 244 248 250 252 250 254 257 257 258 260 256 254 247 243 242 247 244 247 253 255 257 259 261 264 267 267 268 271 275 280 283 283 284 285 289 290 291 293 293 293 293 294 293 293 293
241 240 241 242 244 248 252 254 255 255 257 259 261 260 259 254 247 245 246 248 252 250 254 258 260 264 267 270 272 274 275 277 280 280 281 283 285 288 290 291 293 294 295 293 293 292 292 292 291
240 242 244 248 249 249 251 253 256 255 257 261 258 257 256 254 249 246 248 248 250 252 254 258 261 264 267 269 271 272 275 277 277 277 278 280 283 284 288 291 292 293 292 291 291 292 292 292 293
244 247 249 250 251 252 252 251 254 255 254 256 259 258 255 254 251 250 249 251 250 251 253 257 259 261 263 265 268 269 271 272 273 275 277 279 281 284 287 291 292 290 290 290 291 292 292 293 293
244 250 251 251 251 252 254 254 252 256 255 255 256 258 255 250 249 248 249 251 250 251 253 256 258 260 262 264 267 269 271 272 273 275 276 278 281 284 287 287 287 285 285 287 289 290 291 293 293
248 246 251 252 254 253 252 258 252 253 257 255 253 252 249 248 249 250 252 253 253 253 254 257 259 262 264 267 269 272 274 276 276 276 277 279 287 289 292 291 291 289 287 288 288 289 290 291 291
245 248 252 254 255 255 254 256 252 253 253 253 255 256 251 248 248 250 252 253 254 256 258 260 262 264 266 268 271 273 275 277 277 276 278 282 289 293 292 289 289 290 289 289 288 288 289 290 290
247 248 250 252 256 259 260 259 257 259 253 251 250 252 255 255 252 251 251 254 255 256 257 260 262 264 266 269 271 273 275 276 276 276 276 282 286 289 292 289 290 290 288 287 287 288 289 289 289
255 256 254 255 253 257 258 255 253 259 260 257 252 252 253 253 254 255 256 256 257 259 260 262 263 265 267 269 270 272 273 275 274 275 277 281 284 288 289 288 288 289 288 288 288 289 289 288 287
251 251 257 257 256 257 254 253 254 259 263 264 264 261 258 256 255 255 256 256 256 257 258 260 262 264 266 268 269 271 271 272 274 276 279 282 286 287 287 287 288 287 287 288 288 287 287 287 287
251 253 252 253 253 256 257 257 257 260 265 267 263 262 261 260 260 260 259 259 258 259 260 262 263 264 266 267 268 269 270 272 275 278 280 283 285 286 286 285 285 285 286 286 287 287 286 285 285
251 253 254 257 257 259 261 259 260 259 262 267 268 265 263 262 261 259 259 260 261 262 262 261 262 263 265 266 267 270 274 277 280 281 283 284 284 283 283 283 284 284 285 285 284 284 284 285 285
247 247 249 251 254 257 258 253 262 266 265 263 264 266 263 262 263 262 262 263 264 264 266 269 271 271 271 272 274 277 278 280 280 280 280 281 282 282 283 283 283 284 283 283 284 285 286 286 285
Height
5869 5870 5871 5874 5877 5877 5875 5876 5877 5878 5877 5877 5877 5877 5877 5877 5877 5879 5877 5877 5877 5877 5878 5878 5879 5879 5880 5880 5880 5881 5881 5881 5880 5881 5881 5881 5881 5881 5881 5880 5880 5881 5881 5882 5883 5883 5884 5884 5883
5868 5868 5869 5872 5875 5876 5876 5876 5877 5878 5877 5877 5877 5877 5878 5878 5877 5878 5878 5878 5878 5878 5879 5879 5879 5880 5880 5881 5881 5881 5881 5881 5881 5881 5881 5881 5881 5881 5881 5881 5881 5882 5881 5882 5882 5882 5883 5883 5883
5866 5866 5867 5871 5874 5875 5874 5876 5876 5878 5878 5876 5878 5878 5878 5879 5878 5878 5878 5879 5879 5879 5879 5879 5880 5880 5881 5881 5881 5881 5881 5881 5881 5881 5881 5881 5880 5880 5880 5881 5881 5882 5882 5882 5882 5883 5883 5882 5882
5864 5864 5866 5870 5873 5873 5872 5874 5876 5877 5877 5877 5877 5878 5879 5879 5879 5879 5878 5879 5879 5880 5879 5879 5880 5880 5880 5881 5880 5880 5881 5881 5881 5881 5881 5881 5881 5881 5881 5881 5880 5880 5880 5880 5880 5880 5880 5880 5881
5861 5861 5865 5869 5871 5871 5871 5873 5875 5877 5876 5877 5877 5877 5879 5879 5879 5879 5879 5879 5880 5880 5879 5879 5879 5880 5880 5880 5880 5880 5880 5880 5881 5881 5881 5881 5881 5881 5880 5880 5880 5880 5880 5879 5879 5879 5879 5878 5878
5858 5858 5861 5866 5869 5868 5869 5871 5874 5875 5875 5875 5876 5877 5878 5879 5879 5879 5879 5879 5879 5880 5879 5879 5879 5879 5880 5879 5879 5879 5879 5879 5880 5880 5880 5880 5880 5880 5880 5880 5880 5879 5879 5879 5878 5878 5877 5876 5876
5855 5854 5858 5863 5866 5865 5867 5870 5872 5872 5874 5874 5874 5875 5877 5877 5878 5878 5879 5879 5879 5879 5879 5879 5879 5879 5879 5879 5879 5879 5878 5878 5878 5878 5879 5879 5879 5879 5880 5879 5879 5878 5878 5877 5876 5875 5874 5873 5873
5851 5851 5854 5858 5861 5861 5864 5866 5868 5870 5873 5872 5873 5874 5875 5876 5876 5877 5877 5878 5879 5878 5878 5878 5878 5879 5879 5878 5878 5878 5878 5877 5877 5877 5877 5877 5878 5878 5878 5878 5878 5877 5876 5876 5875 5874 5873 5872 5871
5847 5848 5849 5854 5858 5859 5861 5864 5866 5868 5870 5872 5872 5873 5873 5874 5874 5875 5876 5876 5877 5877 5877 5877 5877 5878 5878 5878 5878 5877 5878 5877 5877 5877 5876 5876 5876 5876 5876 5876 5876 5875 5874 5874 5873 5872 5871 5870 5869
5843 5845 5843 5849 5854 5857 5857 5860 5862 5864 5866 5869 5871 5870 5871 5872 5872 5873 5873 5874 5874 5875 5875 5876 5876 5876 5876 5877 5877 5877 5877 5877 5877 5877 5876 5876 5876 5876 5875 5875 5874 5874 5873 5872 5871 5870 5869 5867 5866
5838 5839 5841 5843 5848 5852 5853 5854 5856 5859 5864 5865 5866 5867 5867 5868 5870 5870 5870 5870 5871 5872 5873 5873 5874 5874 5875 5876 5876 5876 5877 5877 5877 5877 5876 5876 5876 5876 5875 5875 5874 5873 5872 5871 5869 5868 5867 5865 5863
5833 5835 5836 5839 5843 5847 5850 5850 5852 5855 5859 5860 5861 5863 5863 5865 5866 5867 5868 5868 5869 5870 5871 5871 5872 5873 5874 5874 5875 5875 5875 5876 5876 5876 5876 5875 5875 5875 5874 5873 5872 5871 5870 5869 5867 5866 5864 5863 5861
5828 5830 5832 5833 5840 5842 5845 5846 5845 5851 5854 5855 5857 5858 5858 5861 5862 5864 5865 5865 5867 5867 5867 5868 5870 5870 5870 5871 5872 5873 5873 5873 5873 5873 5873 5873 5873 5872 5871 5871 5869 5868 5867 5866 5864 5862 5860 5858 5857
5823 5824 5827 5828 5832 5837 5838 5842 5842 5845 5848 5849 5852 5853 5854 5856 5858 5860 5862 5863 5864 5865 5864 5864 5865 5866 5867 5868 5869 5869 5869 5869 5869 5870 5870 5869 5868 5868 5868 5867 5866 5865 5864 5862 5860 5858 5856 5853 5852
5816 5817 5820 5823 5824 5827 5831 5834 5840 5837 5839 5842 5845 5848 5849 5851 5853 5855 5856 5858 5861 5861 5859 5861 5862 5863 5863 5863 5863 5864 5865 5865 5865 5865 5865 5865 5865 5864 5863 5862 5861 5860 5860 5858 5855 5853 5851 5849 5847
5807 5809 5811 5817 5820 5821 5823 5829 5836 5831 5832 5835 5837 5840 5842 5844 5846 5848 5850 5853 5855 5855 5855 5856 5857 5858 5859 5859 5859 5859 5859 5859 5859 5859 5859 5859 5858 5857 5857 5856 5854 5853 5853 5852 5850 5847 5845 5843 5840
5796 5800 5803 5810 5814 5814 5816 5819 5827 5826 5827 5828 5830 5833 5834 5836 5839 5841 5844 5846 5848 5850 5849 5850 5852 5852 5853 5854 5854 5854 5854 5853 5853 5852 5851 5851 5851 5850 5849 5848 5847 5846 5844 5843 5841 5839 5836 5834 5832
5790 5794 5798 5801 5808 5806 5807 5808 5818 5819 5819 5821 5824 5826 5828 5830 5833 5833 5837 5837 5841 5844 5843 5843 5844 5846 5846 5847 5847 5848 5847 5847 5846 5846 5844 5842 5841 5841 5841 5840 5838 5837 5835 5834 5831 5829 5826 5824 5822
5778 5781 5785 5788 5794 5796 5798 5801 5808 5813 5810 5813 5817 5821 5820 5822 5824 5825 5829 5831 5833 5836 5836 5835 5837 5838 5838 5839 5839 5838 5838 5838 5839 5837 5836 5834 5833 5831 5831 5829 5828 5827 5826 5824 5821 5819 5817 5814 5811
5768 5771 5776 5780 5783 5785 5787 5789 5795 5803 5804 5804 5807 5809 5812 5812 5813 5816 5820 5824 5825 5827 5827 5827 5829 5830 5830 5830 5830 5829 5828 5829 5828 5828 5827 5826 5825 5824 5822 5820 5818 5817 5815 5813 5810 5807 5805 5802 5798
5759 5763 5767 5769 5771 5773 5774 5777 5783 5791 5792 5796 5797 5801 5803 5803 5804 5807 5811 5814 5817 5819 5819 5819 5821 5821 5821 5821 5821 5820 5820 5820 5819 5818 5818 5817 5816 5814 5813 5810 5808 5805 5803 5800 5798 5795 5791 5788 5784
5750 5754 5756 5758 5759 5761 5763 5761 5775 5781 5784 5785 5788 5791 5794 5794 5793 5795 5801 5805 5807 5809 5810 5809 5811 5811 5811 5811 5810 5810 5810 5809 5809 5808 5808 5807 5806 5804 5802 5800 5797 5794 5791 5787 5784 5781 5777 5774 5771
5742 5744 5745 5746 5747 5748 5754 5752 5762 5772 5774 5777 5778 5779 5782 5783 5784 5786 5791 5794 5796 5797 5798 5799 5799 5800 5800 5800 5799 5799 5798 5798 5797 5797 5796 5794 5794 5791 5789 5786 5782 5780 5777 5774 5771 5768 5764 5761 5756
5730 5734 5735 5735 5737 5734 5744 5747 5746 5762 5767 5768 5769 5769 5771 5775 5777 5778 5779 5781 5783 5784 5786 5787 5787 5787 5788 5788 5787 5787 5786 5785 5785 5784 5782 5781 5778 5776 5774 5772 5769 5766 5763 5760 5756 5753 5750 5745 5741
5719 5722 5722 5725 5727 5727 5735 5736 5741 5744 5754 5757 5759 5760 5760 5762 5764 5765 5767 5768 5770 5772 5772 5773 5774 5774 5774 5774 5774 5774 5773 5772 5770 5769 5768 5766 5764 5762 5760 5757 5754 5750 5747 5744 5741 5738 5735 5731 5727
5711 5711 5713 5715 5714 5718 5718 5719 5730 5731 5741 5744 5746 5748 5749 5751 5752 5754 5754 5755 5756 5758 5759 5760 5759 5760 5761 5761 5760 5759 5758 5758 5756 5755 5753 5751 5750 5747 5744 5741 5738 5734 5731 5728 5725 5722 5718 5714 5711
5695 5696 5708 5703 5703 5703 5707 5713 5719 5723 5728 5732 5734 5737 5739 5739 5740 5740 5741 5741 5742 5743 5743 5744 5745 5745 5746 5746 5745 5745 5744 5743 5741 5740 5739 5736 5733 5731 5728 5724 5721 5718 5714 5711 5708 5705 5701 5697 5693
5682 5690 5688 5686 5689 5690 5696 5701 5709 5716 5717 5717 5723 5722 5723 5726 5726 5726 5726 5727 5729 5730 5730 5730 5730 5731 5731 5731 5730 5729 5728 5727 5726 5724 5722 5719 5717 5715 5712 5709 5705 5702 5698 5695 5691 5688 5683 5679 5675
5674 5674 5677 5678 5680 5682 5687 5694 5698 5703 5704 5703 5705 5708 5710 5710 5712 5712 5712 5714 5716 5716 5715 5715 5716 5716 5716 5715 5714 5713 5712 5711 5708 5706 5704 5701 5699 5697 5695 5692 5688 5685 5682 5678 5674 5670 5666 5662 5658
5659 5662 5663 5664 5670 5672 5672 5681 5690 5691 5690 5689 5688 5688 5693 5696 5696 5694 5698 5701 5701 5700 5701 5702 5702 5701 5700 5700 5700 5697 5695 5693 5691 5689 5686 5684 5682 5680 5677 5674 5671 5667 5664 5661 5657 5653 5648 5644 5641